Meteo pe oră la Allaman

Astăzi, 16 Ianuarie, Sâmbătă

Timp Temperatura Precipitaţii Vânt Presiune Umiditate
00:00 -6°C° 0 mm 3 m/s 723 mmHg 93%
01:00 -7°C° 0 mm 3 m/s 723 mmHg 93%
02:00 -6°C° 0 mm 2 m/s 723 mmHg 93%
03:00 -6°C° 0 mm 2 m/s 724 mmHg 93%
04:00 -6°C° 0 mm 2 m/s 724 mmHg 92%
05:00 -6°C° 0 mm 2 m/s 724 mmHg 91%
06:00 -6°C° 0 mm 1 m/s 724 mmHg 89%
07:00 -4°C° 0 mm 1 m/s 724 mmHg 88%
08:00 -3°C° 0 mm 1 m/s 724 mmHg 87%
09:00 -2°C° 0 mm 1 m/s 724 mmHg 86%
10:00 -1°C° 0 mm 1 m/s 723 mmHg 84%
11:00 -1°C° 0 mm 0 m/s 723 mmHg 82%
12:00 0°C° 0 mm 0 m/s 722 mmHg 81%
13:00 0°C° 0 mm 0 m/s 722 mmHg 83%
14:00 +1°C° 0 mm 1 m/s 722 mmHg 85%
15:00 +1°C° 0 mm 1 m/s 722 mmHg 87%
16:00 0°C° 0 mm 1 m/s 722 mmHg 87%
17:00 0°C° 0 mm 1 m/s 722 mmHg 87%
18:00 -3°C° 0 mm 2 m/s 722 mmHg 87%
19:00 -3°C° 0.2 mm 2 m/s 721 mmHg 88%
20:00 -2°C° 0.2 mm 3 m/s 721 mmHg 90%
21:00 -2°C° 0.2 mm 3 m/s 721 mmHg 91%
22:00 -2°C° 0.8 mm 3 m/s 720 mmHg 93%
23:00 -1°C° 0.8 mm 3 m/s 720 mmHg 94%

Mâine, 17 Ianuarie, Duminică

Timp Temperatura Precipitaţii Vânt Presiune Umiditate
00:00 -1°C° 0.8 mm 3 m/s 719 mmHg 96%
01:00 -1°C° 1.6 mm 3 m/s 719 mmHg 96%
02:00 0°C° 1.6 mm 3 m/s 718 mmHg 97%
03:00 0°C° 1.6 mm 3 m/s 718 mmHg 97%
04:00 0°C° 0.4 mm 3 m/s 718 mmHg 98%
05:00 +2°C° 0.4 mm 2 m/s 718 mmHg 98%
06:00 +2°C° 0.4 mm 2 m/s 719 mmHg 99%
07:00 +2°C° 0.4 mm 2 m/s 719 mmHg 99%
08:00 +2°C° 0.4 mm 2 m/s 719 mmHg 99%
09:00 +2°C° 0.4 mm 2 m/s 719 mmHg 99%
10:00 +3°C° 0.6 mm 2 m/s 719 mmHg 99%
11:00 +3°C° 0.6 mm 2 m/s 720 mmHg 99%
12:00 +3°C° 0.6 mm 2 m/s 720 mmHg 99%
13:00 +2°C° 0.8 mm 2 m/s 720 mmHg 98%
14:00 +2°C° 0.8 mm 2 m/s 720 mmHg 98%
15:00 +2°C° 0.8 mm 2 m/s 720 mmHg 98%
16:00 +1°C° 0.4 mm 2 m/s 721 mmHg 97%
17:00 +2°C° 0.4 mm 1 m/s 722 mmHg 96%
18:00 +1°C° 0.4 mm 1 m/s 723 mmHg 96%
19:00 +1°C° 0.1 mm 1 m/s 723 mmHg 95%
20:00 0°C° 0.1 mm 1 m/s 724 mmHg 95%
21:00 0°C° 0.1 mm 1 m/s 724 mmHg 94%
22:00 -1°C° 0 mm 1 m/s 724 mmHg 94%
23:00 -1°C° 0 mm 1 m/s 725 mmHg 93%

Poimâine, 18 Ianuarie, Luni

Timp Temperatura Precipitaţii Vânt Presiune Umiditate
00:00 -1°C° 0 mm 1 m/s 725 mmHg 93%
01:00 -1°C° 0 mm 1 m/s 725 mmHg 93%
02:00 -2°C° 0 mm 1 m/s 725 mmHg 92%
03:00 -3°C° 0 mm 1 m/s 724 mmHg 92%
04:00 -3°C° 0 mm 1 m/s 725 mmHg 92%
05:00 -3°C° 0 mm 1 m/s 725 mmHg 91%
06:00 -3°C° 0 mm 1 m/s 725 mmHg 91%
07:00 -2°C° 0 mm 1 m/s 725 mmHg 91%
08:00 -1°C° 0 mm 1 m/s 725 mmHg 90%
09:00 0°C° 0 mm 1 m/s 725 mmHg 90%
10:00 +1°C° 0 mm 1 m/s 725 mmHg 90%
11:00 +1°C° 0 mm 0 m/s 725 mmHg 91%
12:00 +2°C° 0 mm 0 m/s 725 mmHg 91%
13:00 +2°C° 0 mm 0 m/s 724 mmHg 92%
14:00 +1°C° 0 mm 0 m/s 724 mmHg 93%
15:00 +1°C° 0 mm 0 m/s 724 mmHg 93%
16:00 0°C° 0 mm 0 m/s 724 mmHg 93%
17:00 -1°C° 0 mm 0 m/s 724 mmHg 93%
18:00 -1°C° 0 mm 1 m/s 724 mmHg 92%
19:00 -2°C° 0 mm 1 m/s 724 mmHg 90%
20:00 -2°C° 0 mm 1 m/s 724 mmHg 89%
21:00 -2°C° 0 mm 1 m/s 724 mmHg 87%
22:00 -2°C° 0 mm 1 m/s 724 mmHg 85%
23:00 -2°C° 0 mm 1 m/s 723 mmHg 83%

19 Ianuarie, Marţi

Timp Temperatura Precipitaţii Vânt Presiune Umiditate
00:00 -2°C° 0 mm 1 m/s 723 mmHg 82%
01:00 -2°C° 0 mm 1 m/s 723 mmHg 81%
02:00 -2°C° 0 mm 1 m/s 722 mmHg 80%
03:00 -2°C° 0 mm 1 m/s 722 mmHg 79%
04:00 -4°C° 0 mm 2 m/s 721 mmHg 79%
05:00 -3°C° 0 mm 2 m/s 721 mmHg 78%
06:00 -3°C° 0 mm 2 m/s 721 mmHg 77%
07:00 -2°C° 0 mm 2 m/s 721 mmHg 77%
08:00 -1°C° 0 mm 2 m/s 721 mmHg 77%
09:00 +1°C° 0 mm 2 m/s 721 mmHg 77%
10:00 +2°C° 0 mm 2 m/s 720 mmHg 81%
11:00 +3°C° 0 mm 2 m/s 720 mmHg 85%
12:00 +4°C° 0 mm 2 m/s 719 mmHg 89%
13:00 +3°C° 0 mm 3 m/s 719 mmHg 86%
14:00 +3°C° 0 mm 3 m/s 718 mmHg 83%
15:00 +3°C° 0 mm 3 m/s 718 mmHg 80%
16:00 +2°C° 0 mm 3 m/s 718 mmHg 78%
17:00 +1°C° 0 mm 3 m/s 718 mmHg 75%
18:00 -1°C° 0 mm 4 m/s 718 mmHg 72%
19:00 -1°C° 0 mm 4 m/s 718 mmHg 74%
20:00 -1°C° 0 mm 4 m/s 718 mmHg 75%
21:00 -1°C° 0 mm 4 m/s 718 mmHg 76%
22:00 -1°C° 0 mm 4 m/s 718 mmHg 76%
23:00 -1°C° 0 mm 4 m/s 717 mmHg 76%

20 Ianuarie, Miercuri

Timp Temperatura Precipitaţii Vânt Presiune Umiditate
00:00 +1°C° 0 mm 3 m/s 717 mmHg 76%
01:00 +1°C° 0 mm 3 m/s 716 mmHg 77%
02:00 +1°C° 0 mm 3 m/s 716 mmHg 78%
03:00 +1°C° 0 mm 3 m/s 716 mmHg 79%
04:00 +1°C° 0 mm 3 m/s 715 mmHg 79%
05:00 +1°C° 0 mm 3 m/s 715 mmHg 79%
06:00 +1°C° 0 mm 3 m/s 714 mmHg 79%
07:00 +2°C° 0 mm 3 m/s 714 mmHg 80%
08:00 +2°C° 0 mm 3 m/s 713 mmHg 80%
09:00 +4°C° 0 mm 2 m/s 713 mmHg 81%
10:00 +5°C° 0 mm 2 m/s 712 mmHg 84%
11:00 +5°C° 0 mm 2 m/s 712 mmHg 87%
12:00 +6°C° 0 mm 2 m/s 711 mmHg 90%
13:00 +6°C° 0 mm 2 m/s 711 mmHg 89%
14:00 +5°C° 0 mm 2 m/s 710 mmHg 88%
15:00 +5°C° 0 mm 2 m/s 710 mmHg 87%
16:00 +5°C° 0 mm 2 m/s 710 mmHg 86%
17:00 +4°C° 0 mm 2 m/s 710 mmHg 85%
18:00 +3°C° 0 mm 2 m/s 710 mmHg 83%
19:00 +3°C° 0 mm 2 m/s 710 mmHg 85%
20:00 +3°C° 0 mm 2 m/s 709 mmHg 86%
21:00 +2°C° 0 mm 3 m/s 709 mmHg 87%
22:00 +2°C° 0 mm 3 m/s 709 mmHg 86%
23:00 +2°C° 0 mm 3 m/s 709 mmHg 85%

21 Ianuarie, Joi

Timp Temperatura Precipitaţii Vânt Presiune Umiditate
00:00 +2°C° 0 mm 3 m/s 709 mmHg 84%
01:00 +3°C° 0.1 mm 4 m/s 709 mmHg 85%
02:00 +3°C° 0.1 mm 4 m/s 709 mmHg 86%
03:00 +2°C° 0.1 mm 5 m/s 709 mmHg 86%
04:00 +2°C° 1.2 mm 5 m/s 709 mmHg 89%
05:00 +2°C° 1.2 mm 5 m/s 710 mmHg 92%
06:00 +2°C° 1.2 mm 5 m/s 710 mmHg 95%
07:00 +2°C° 1.9 mm 5 m/s 710 mmHg 96%
08:00 +2°C° 1.9 mm 5 m/s 711 mmHg 97%
09:00 +3°C° 1.9 mm 4 m/s 711 mmHg 97%
10:00 +3°C° 0.4 mm 5 m/s 711 mmHg 96%
11:00 +3°C° 0.4 mm 5 m/s 711 mmHg 95%
12:00 +3°C° 0.4 mm 5 m/s 711 mmHg 94%
13:00 +3°C° 0 mm 5 m/s 711 mmHg 95%
14:00 +4°C° 0 mm 4 m/s 710 mmHg 95%
15:00 +4°C° 0 mm 4 m/s 710 mmHg 96%
16:00 +4°C° 0 mm 4 m/s 710 mmHg 95%
17:00 +3°C° 0 mm 4 m/s 710 mmHg 94%
18:00 +3°C° 0 mm 3 m/s 709 mmHg 94%
19:00 +3°C° 0 mm 3 m/s 709 mmHg 93%
20:00 +3°C° 0 mm 3 m/s 708 mmHg 92%
21:00 +3°C° 0 mm 3 m/s 708 mmHg 91%
22:00 +3°C° 0 mm 3 m/s 707 mmHg 90%
23:00 +3°C° 0 mm 3 m/s 706 mmHg 90%
Arată mai mult

Formular de consimțământ

Meteoprog și furnizorii noștri de servicii pot stoca și accesa date personale, precum cookies, identificatori de dispozitiv sau alte tehnologii similare pe dispozitivul dumneavoastră și procesa astfel de date pentru a personaliza conținutul și reclamele, dar și pentru a oferi caracteristici de social media și pentru a analiza traficul.

  • Stocarea și/sau accesarea informațiilor pe dispozitivul dumneavoastră

    Cookies, identificatori de dispozitiv sau alte informații pot fi stocate sau accesate pe dispozitiv în scopurile indicate mai sus.

  • Reclame și conținut personalizat, evaluarea reclamelor și a conținutului, informații despre audiențe și dezvoltarea produselor

    Reclamele și conținutul pot fi personalizate pe baza unui profil. Pot fi adăugate date suplimentare pentru a personaliza mai bine reclamele și conținutul. Performanța reclamelor și conținutului poate fi măsurată. Pot fi obținute informații despre utilizatorii care au văzut reclamele și conținutul. Aceste date pot fi utilizate pentru a dezvolta sau îmbunătăți experiența utilizatorilor, sistemele și software-ul.

Dând clic pe ‘Sunt de acord’, permiteți utilizarea cookie-urilor menționate, a identificatorilor de dispozitiv, balizelor web sau altor tehnologii similare. Setările pot fi modificate din browser-ul dispozitivului dumneavoastră.

În anumite scopuri, interesele legitime pot prima asupra consimțământului. Puteți citi mai multe informații în acest sens în Politica privind Confidențialitatea Datelor și Cookie.